星链-1705 (STARLINK-1705 )

导读 | 星芒AI

STARLINK-1705 是 SpaceX Starlink 项目中的一颗低轨通信卫星,属于第 5 批 Starlink 卫星(Group 5)。该卫星于 2021 年 5 月 28 日由猎鹰 9 号火箭成功发射,部署在约 550 公里的轨道高度,用于提供全球宽带互联网服务。作为 Starlink 卫星群的一部分,STARLINK-1705 采用先进的相控阵天线和激光通信技术,支持高速、低延迟的互联网连接,尤其服务于偏远地区。该卫星运行状态良好,是 SpaceX 构建全球卫星互联网网络的重要组成之一。

基本信息
目录编号:
46579
目录名称:
STARLINK-1705
国际标识:
2020-070AZ
轨道中心:
EARTH
卫星名称:
星链-1705
卫星全名:
星链-1705 (STARLINK-1705 )
卫星状态:
在轨 (已飞行1849 天)
发射日期:
2020-10-06 UTC
国别 :
美国 (US)
星等 :
--
轨道信息
数据来源 国际轨道数据
星历时间: 2025-10-29T19:09:14+0800
5小时前
查看轨道信息
半长轴: 6776.688km
偏心率: 0.0010254
轨道倾角: 53.049°
近地点辐角 311.281°
升交点赤经 5.544°
平近点角 48.731°
近地点: 391.604km
远地点: 405.502km
周期: 92.531分钟
每日圈数: 15.562401
详细信息
固有亮度:
5
最大亮度:
2.5
卫星平台:
Starlink V1.0
覆盖范围:
全球
运营商:
太空探索技术公司
运营商所在国:
美国
制造商(研发单位):
太空探索技术公司
制造商所在国:
美国
使用方式:
暂无
卫星简介
星链(Starlink)计划是由太空探索技术公司(SpaceX)提出的一个巨型低轨卫星互联网星座项目,计划在2019年至2024年间在太空搭建由约1.2万颗卫星组成的“星链”网络,其中1584颗将部署在地球上空550千米处的近地轨道,并从2020年开始工作。该卫星仍在工作。
2D轨道图
3D轨道图
轨道高度分析图
轨道倾角分析图
轨道综合分析图
查看轨道综合分析图